STARLINK-5692, 55483

Orbit data source: Space-Track

STARLINK-5692, 55483 is a payload satellite owned by SpaceX/Seattle (US) in LEO that was launched on Thu, 02 Feb 2023 UTC via an FALCON 9 launch vehicle from the Air Force Eastern Test Range (AFETR). Payload-class satellites include a variety of spacecraft equipped with specific instruments for various scientific and technological missions. These include communications satellites like Starlink; space stations such as the ISS; scientific satellites like the Hubble; Earth observation satellites from companies like Planet Labs, Umbra, and HawkEye 360; GPS; miniature CubeSats for education and research; and military/defense satellites.

Loading next visibility...
Identifier
55483, 2023-015AL
Orbit
LEO
Country
Flag of USUS
Related business
Manufacturer
SpaceX/Seattle
Mission
Operational Commercial Communications
Bus & Motor
STARLINK, Unknown motor
Mass
305 kg wet, ~290 kg dry
Launch date (UTC)
2023-02-02 (3 years ago)
Launch vehicle
FALCON 9
Launch site
Air Force Eastern Test Range (AFETR)
Object type
Payload
Rocket body
Debris
Shape & HBR
Box + 1 Pan, 4.4 m
Radar Cross Section
13.562 m², Large (>1 m²)

Expand to show TLE details & history
Last TLE update: 20 hours ago

TLE from 20 hours ago
0 STARLINK-5692
1 55483U 23015AL  25259.58411234  .00000180  00000-0  28393-4 0  9995
2 55483  43.0029 205.0528 0001125 264.7995  95.2719 15.02531633144414
Epoch: 2025-09-16T14:01Z
TLE epoch observation values (Epoch: 2025-09-16T14:01:07.306Z)
Latitude
-0°
Longitude
-0.99996°
Altitude
558.943 km
Speed
7.584 km/s
True Right ascension
13h 40m 12s
True Declination
0° 00' 00"
Sunlit
Object was in daylight at epoch
Visualization orbit readout
Latitude
Unknown
Longitude
Unknown
Altitude
Unknown
Speed
Unknown
Apparent Right ascension
Unknown
Apparent Declination
Unknown
Sunlit
N/A
Visualization observer readout
Local Sidereal Time
03:03:19
Azimuth
Unknown
Elevation
Unknown
Doppler factor
Unknown
Orbital elements
Apogee altitude
561.797 km
Perigee altitude
560.236 km
Semi-major axis
6,939.153 km
Eccentricity
0.00011
Inclination
43.0029°
RAAN
205.0528°
Arg. of periapsis
264.7995°
True anomaly
95.28474°
Mean anomaly
95.2719°
Eccentric anomaly
95.27832°
Mean motion
3.75477 °/min
Orbital period
95.88 mins
BSTAR
0.000028393
Loading maneuver chart data...
Computing Atmospheric mass density...
Loading historical data...
Loading historical data...
Loading historical data...
Loading historical data...
Loading historical data...
Loading historical data...
Loading historical data...

Documentation

Showing up to 5 results
|